Location: Newark
(37.8333°N, 119.5000°W)
Time: 08:48:12
(UTC+00:00)

Tiros 1 despin weight - Pass Details

Date: 21 August 2019
Orbit: 594 x 643 km, 48.2° (Epoch: 16 October)

Event Time Altitude Azimuth Distance (km) Brightness Sun altitude
Rises 06:23:34 0° 202° (SSW) 2,813 - -35.0°
Reaches altitude 10° 06:26:09 10° 189° (S) 1,919 - -35.2°
Maximum altitude 06:29:43 24° 134° (SE) 1,233 - -35.6°
Drops below altitude 10° 06:33:20 10° 80° (E) 1,946 - -35.9°
Sets 06:35:57 0° 67° (ENE) 2,861 - -36.1°
